When you browse on this site, cookies collect data to enhance your experience and personalize the content and advertising you see.
Visit our Privacy Policy to learn more. By continuing to use the site, you agree to this use of cookies and data.
  • în România
  • Lista ţărilor
  • Pe 7 zile
  • Temperatura apei
  • Hartă satelitară
  • Meteo pe hartă
  • Widget-uri
  • user-avatar
    Intrare

    Meteo pe oră la Gulbarga

    Astăzi, 22 Iulie, Luni

    Timp Temperatura Precipitaţii Vânt Presiune Umiditate
    00:00 +28°C° 0 mm 3 m/s 714 mmHg 79%
    01:00 +28°C° 0 mm 3 m/s 713 mmHg 81%
    02:00 +27°C° 0 mm 3 m/s 712 mmHg 83%
    03:00 +27°C° 0 mm 3 m/s 712 mmHg 84%
    04:00 +27°C° 0 mm 3 m/s 712 mmHg 85%
    05:00 +27°C° 0 mm 3 m/s 712 mmHg 86%
    06:00 +28°C° 0 mm 3 m/s 712 mmHg 83%
    07:00 +28°C° 0 mm 3 m/s 713 mmHg 79%
    08:00 +29°C° 0 mm 3 m/s 714 mmHg 76%
    09:00 +30°C° 1 mm 3 m/s 714 mmHg 73%
    10:00 +30°C° 1 mm 4 m/s 714 mmHg 70%
    11:00 +32°C° 1 mm 4 m/s 714 mmHg 67%
    12:00 +33°C° 0.8 mm 3 m/s 713 mmHg 65%
    13:00 +33°C° 0.8 mm 3 m/s 713 mmHg 62%
    14:00 +34°C° 0.8 mm 3 m/s 712 mmHg 59%
    15:00 +34°C° 0.7 mm 4 m/s 712 mmHg 61%
    16:00 +33°C° 0.7 mm 4 m/s 712 mmHg 63%
    17:00 +33°C° 0.7 mm 5 m/s 711 mmHg 66%
    18:00 +32°C° 1 mm 5 m/s 712 mmHg 69%
    19:00 +30°C° 1 mm 5 m/s 712 mmHg 72%
    20:00 +30°C° 1 mm 5 m/s 713 mmHg 75%
    21:00 +29°C° 1.3 mm 5 m/s 713 mmHg 77%
    22:00 +28°C° 1.3 mm 5 m/s 713 mmHg 79%
    23:00 +28°C° 1.3 mm 5 m/s 713 mmHg 81%

    Mâine, 23 Iulie, Marţi

    Timp Temperatura Precipitaţii Vânt Presiune Umiditate
    00:00 +28°C° 0.5 mm 5 m/s 713 mmHg 83%
    01:00 +27°C° 0.5 mm 5 m/s 712 mmHg 84%
    02:00 +27°C° 0.5 mm 5 m/s 712 mmHg 85%
    03:00 +27°C° 0.1 mm 4 m/s 712 mmHg 86%
    04:00 +27°C° 0.1 mm 4 m/s 712 mmHg 87%
    05:00 +26°C° 0.1 mm 4 m/s 712 mmHg 88%
    06:00 +27°C° 0.1 mm 4 m/s 712 mmHg 85%
    07:00 +28°C° 0.1 mm 4 m/s 713 mmHg 82%
    08:00 +29°C° 0.1 mm 4 m/s 713 mmHg 79%
    09:00 +30°C° 0 mm 3 m/s 713 mmHg 74%
    10:00 +31°C° 0 mm 3 m/s 713 mmHg 70%
    11:00 +32°C° 0 mm 2 m/s 713 mmHg 65%
    12:00 +32°C° 0.4 mm 2 m/s 712 mmHg 62%
    13:00 +33°C° 0.4 mm 1 m/s 712 mmHg 60%
    14:00 +33°C° 0.4 mm 1 m/s 711 mmHg 57%
    15:00 +33°C° 0.6 mm 1 m/s 711 mmHg 57%
    16:00 +34°C° 0.6 mm 1 m/s 711 mmHg 56%
    17:00 +35°C° 0.6 mm 2 m/s 711 mmHg 56%
    18:00 +34°C° 0.6 mm 2 m/s 712 mmHg 61%
    19:00 +32°C° 0.6 mm 2 m/s 712 mmHg 67%
    20:00 +31°C° 0.6 mm 3 m/s 713 mmHg 73%
    21:00 +30°C° 1.1 mm 3 m/s 713 mmHg 74%
    22:00 +30°C° 1.1 mm 3 m/s 713 mmHg 76%
    23:00 +29°C° 1.1 mm 4 m/s 713 mmHg 78%

    Poimâine, 24 Iulie, Miercuri

    Timp Temperatura Precipitaţii Vânt Presiune Umiditate
    00:00 +29°C° 0 mm 3 m/s 713 mmHg 79%
    01:00 +29°C° 0 mm 3 m/s 712 mmHg 80%
    02:00 +28°C° 0 mm 2 m/s 712 mmHg 81%
    03:00 +28°C° 0 mm 2 m/s 712 mmHg 82%
    04:00 +28°C° 0 mm 3 m/s 712 mmHg 82%
    05:00 +28°C° 0 mm 3 m/s 712 mmHg 82%
    06:00 +28°C° 0.3 mm 3 m/s 712 mmHg 80%
    07:00 +29°C° 0.3 mm 4 m/s 713 mmHg 78%
    08:00 +29°C° 0.3 mm 4 m/s 713 mmHg 75%
    09:00 +30°C° 1.9 mm 4 m/s 713 mmHg 72%
    10:00 +32°C° 1.9 mm 4 m/s 713 mmHg 68%
    11:00 +33°C° 1.9 mm 4 m/s 713 mmHg 65%
    12:00 +33°C° 1.6 mm 4 m/s 713 mmHg 62%
    13:00 +34°C° 1.6 mm 4 m/s 712 mmHg 60%
    14:00 +34°C° 1.6 mm 4 m/s 712 mmHg 58%
    15:00 +34°C° 1.9 mm 4 m/s 711 mmHg 61%
    16:00 +33°C° 1.9 mm 5 m/s 711 mmHg 64%
    17:00 +32°C° 1.9 mm 5 m/s 711 mmHg 68%
    18:00 +30°C° 2 mm 7 m/s 712 mmHg 73%
    19:00 +28°C° 2 mm 8 m/s 713 mmHg 79%
    20:00 +27°C° 2 mm 9 m/s 713 mmHg 85%
    21:00 +26°C° 0.6 mm 8 m/s 713 mmHg 85%
    22:00 +26°C° 0.6 mm 8 m/s 714 mmHg 86%
    23:00 +26°C° 0.6 mm 7 m/s 714 mmHg 86%

    25 Iulie, Joi

    Timp Temperatura Precipitaţii Vânt Presiune Umiditate
    00:00 +26°C° 0.4 mm 7 m/s 714 mmHg 86%
    01:00 +26°C° 0.4 mm 6 m/s 713 mmHg 87%
    02:00 +26°C° 0.4 mm 6 m/s 713 mmHg 87%
    03:00 +26°C° 0 mm 5 m/s 713 mmHg 87%
    04:00 +26°C° 0 mm 5 m/s 713 mmHg 87%
    05:00 +26°C° 0 mm 5 m/s 713 mmHg 88%
    06:00 +27°C° 0.4 mm 6 m/s 714 mmHg 86%
    07:00 +27°C° 0.4 mm 6 m/s 714 mmHg 85%
    08:00 +27°C° 0.4 mm 6 m/s 714 mmHg 84%
    09:00 +27°C° 0.9 mm 7 m/s 714 mmHg 82%
    10:00 +28°C° 0.9 mm 7 m/s 715 mmHg 80%
    11:00 +28°C° 0.9 mm 7 m/s 715 mmHg 78%
    12:00 +28°C° 0.2 mm 7 m/s 714 mmHg 77%
    13:00 +28°C° 0.2 mm 8 m/s 714 mmHg 75%
    14:00 +29°C° 0.2 mm 8 m/s 713 mmHg 73%
    15:00 +29°C° 0 mm 8 m/s 713 mmHg 73%
    16:00 +28°C° 0 mm 7 m/s 713 mmHg 73%
    17:00 +28°C° 0 mm 7 m/s 713 mmHg 73%
    18:00 +28°C° 0 mm 6 m/s 714 mmHg 76%
    19:00 +27°C° 0 mm 6 m/s 714 mmHg 79%
    20:00 +27°C° 0 mm 5 m/s 715 mmHg 81%
    21:00 +27°C° 0 mm 6 m/s 715 mmHg 82%
    22:00 +26°C° 0 mm 6 m/s 715 mmHg 82%
    23:00 +26°C° 0 mm 6 m/s 715 mmHg 82%

    26 Iulie, Vineri

    Timp Temperatura Precipitaţii Vânt Presiune Umiditate
    00:00 +26°C° 0 mm 6 m/s 715 mmHg 84%
    01:00 +26°C° 0 mm 6 m/s 714 mmHg 85%
    02:00 +24°C° 0 mm 6 m/s 714 mmHg 86%
    03:00 +24°C° 0.1 mm 6 m/s 714 mmHg 86%
    04:00 +25°C° 0.1 mm 5 m/s 714 mmHg 85%
    05:00 +25°C° 0.1 mm 5 m/s 714 mmHg 85%
    06:00 +26°C° 0 mm 6 m/s 715 mmHg 83%
    07:00 +26°C° 0 mm 6 m/s 715 mmHg 81%
    08:00 +26°C° 0 mm 7 m/s 716 mmHg 79%
    09:00 +26°C° 0.2 mm 6 m/s 716 mmHg 79%
    10:00 +26°C° 0.2 mm 6 m/s 716 mmHg 79%
    11:00 +26°C° 0.2 mm 6 m/s 716 mmHg 80%
    12:00 +26°C° 0.3 mm 6 m/s 715 mmHg 79%
    13:00 +27°C° 0.3 mm 7 m/s 715 mmHg 78%
    14:00 +27°C° 0.3 mm 7 m/s 715 mmHg 77%
    15:00 +26°C° 0.4 mm 7 m/s 715 mmHg 80%
    16:00 +24°C° 0.4 mm 7 m/s 715 mmHg 84%
    17:00 +24°C° 0.4 mm 7 m/s 715 mmHg 87%
    18:00 +24°C° 0.5 mm 7 m/s 715 mmHg 87%
    19:00 +24°C° 0.5 mm 7 m/s 715 mmHg 88%
    20:00 +24°C° 0.5 mm 7 m/s 716 mmHg 88%
    21:00 +24°C° 0.2 mm 6 m/s 716 mmHg 88%
    22:00 +24°C° 0.2 mm 6 m/s 716 mmHg 88%
    23:00 +25°C° 0.2 mm 5 m/s 716 mmHg 88%

    27 Iulie, Sâmbătă

    Timp Temperatura Precipitaţii Vânt Presiune Umiditate
    00:00 +25°C° 0.2 mm 5 m/s 716 mmHg 88%
    01:00 +23°C° 0.2 mm 5 m/s 715 mmHg 88%
    02:00 +23°C° 0.2 mm 5 m/s 715 mmHg 89%
    03:00 +23°C° 0.2 mm 5 m/s 715 mmHg 89%
    04:00 +23°C° 0.2 mm 5 m/s 715 mmHg 89%
    05:00 +23°C° 0.2 mm 5 m/s 715 mmHg 89%
    06:00 +23°C° 0.1 mm 5 m/s 715 mmHg 88%
    07:00 +23°C° 0.1 mm 5 m/s 716 mmHg 88%
    08:00 +23°C° 0.1 mm 5 m/s 716 mmHg 87%
    09:00 +25°C° 0.1 mm 5 m/s 716 mmHg 86%
    10:00 +25°C° 0.1 mm 5 m/s 716 mmHg 84%
    11:00 +25°C° 0.1 mm 5 m/s 716 mmHg 82%
    12:00 +24°C° 0.1 mm 6 m/s 716 mmHg 82%
    13:00 +26°C° 0.1 mm 6 m/s 715 mmHg 82%
    14:00 +26°C° 0.1 mm 6 m/s 714 mmHg 82%
    15:00 +24°C° 0.1 mm 6 m/s 714 mmHg 84%
    16:00 +24°C° 0.1 mm 7 m/s 714 mmHg 85%
    17:00 +24°C° 0.1 mm 7 m/s 714 mmHg 86%
    18:00 +24°C° 0.2 mm 6 m/s 714 mmHg 86%
    19:00 +24°C° 0.2 mm 6 m/s 715 mmHg 87%
    20:00 +23°C° 0.2 mm 5 m/s 715 mmHg 88%
    21:00 +23°C° 0.3 mm 5 m/s 715 mmHg 88%
    22:00 +23°C° 0.3 mm 6 m/s 716 mmHg 87%
    23:00 +23°C° 0.3 mm 6 m/s 716 mmHg 87%
    Arată mai mult